Theta_e
323 322 323 325 327 326 330 332 331 335 334 335 334 336 335 338 341 342 345 344 344 324 320 326 332 334 331 326 321 321 320 320 320 322 324 323 321 321 319 319 320 320 320 320 320 320 320 320 320
322 323 325 325 327 331 333 335 336 334 335 335 331 333 335 337 339 341 342 343 337 331 321 321 328 332 331 325 322 321 321 320 321 322 322 321 320 320 320 320 320 320 320 320 320 320 320 320 320
320 322 325 317 320 330 333 336 335 333 335 335 327 331 332 334 336 339 337 341 342 339 323 320 324 329 330 325 323 322 322 321 320 320 321 320 320 320 321 321 320 321 320 320 320 320 320 320 320
320 323 325 320 321 321 326 324 327 334 334 335 331 329 330 331 334 338 336 339 343 340 332 320 321 324 327 326 324 323 322 322 321 321 321 321 321 321 321 321 320 320 320 320 320 320 320 320 320
319 321 320 321 322 321 323 323 325 330 329 332 330 329 328 328 332 340 337 339 340 343 335 322 321 323 328 327 325 324 323 323 323 321 321 321 321 321 321 321 320 320 320 320 320 320 320 320 320
318 320 319 321 321 322 322 324 325 330 333 332 330 329 328 328 328 333 339 341 341 342 341 322 320 323 326 329 326 324 324 323 322 323 321 321 321 321 321 321 320 320 320 319 319 319 319 319 319
315 314 318 321 322 322 323 324 324 328 329 329 329 329 328 330 328 330 339 342 341 345 345 326 319 323 326 328 329 326 324 324 323 322 322 321 321 321 321 321 320 320 320 319 319 319 318 318 318
317 313 317 317 319 319 321 322 323 323 328 328 328 328 327 329 329 330 331 342 343 345 346 331 319 322 325 327 330 329 325 324 324 323 322 321 321 321 321 321 320 320 320 319 319 319 319 319 318
316 313 313 315 318 319 321 320 322 323 328 328 328 328 328 329 329 330 328 336 345 346 347 335 321 321 324 326 329 333 332 327 326 325 322 322 321 321 321 321 321 320 320 320 320 320 319 319 319
313 309 313 314 316 316 319 319 320 322 323 324 328 326 325 326 327 329 327 333 338 346 347 337 322 321 322 324 327 331 335 334 329 326 323 322 322 322 321 321 321 321 321 323 329 325 322 322 323
312 311 312 315 317 318 318 319 320 321 320 322 323 325 325 326 328 329 328 329 331 336 347 346 337 322 322 323 324 327 330 332 331 328 326 323 321 321 321 321 322 323 326 331 331 328 330 328 330
312 313 314 315 316 317 317 318 318 319 319 320 321 324 325 326 327 328 326 327 332 330 336 342 347 338 323 321 322 324 326 327 329 329 327 325 321 321 321 321 322 325 329 331 332 332 332 333 333
312 312 315 316 316 316 317 316 316 317 319 319 322 326 325 326 327 327 327 325 328 329 332 338 348 345 339 328 324 324 323 324 324 325 327 326 322 321 321 321 322 324 328 327 329 330 335 337 335
313 313 313 315 315 315 316 316 317 318 318 319 319 323 326 326 327 326 327 326 326 326 331 338 345 343 341 331 329 328 337 336 339 338 326 323 323 321 320 321 322 323 325 328 327 328 334 338 337
313 311 310 313 314 314 316 314 315 318 319 318 319 319 320 326 327 325 325 326 326 327 331 338 338 343 343 341 342 345 343 343 342 342 337 330 326 321 321 322 322 323 327 329 328 330 332 336 336
310 310 310 310 313 314 315 314 314 318 317 318 318 318 319 319 323 325 325 325 325 326 328 335 341 345 345 344 346 347 346 346 344 343 341 341 342 341 339 336 334 330 332 336 332 331 335 337 336
309 309 310 311 313 312 313 312 314 316 315 316 318 318 318 318 319 318 321 324 325 325 325 329 330 338 332 336 336 342 344 345 345 344 343 344 344 344 344 342 340 338 336 336 336 334 333 331 333
310 310 311 312 314 313 313 311 312 315 315 315 317 317 318 320 320 320 320 323 323 325 325 325 326 326 325 326 327 328 332 337 343 344 343 342 342 343 344 343 342 340 338 334 334 332 333 333 334
311 311 312 314 315 314 312 311 312 313 315 315 316 316 317 317 317 320 321 322 321 324 324 325 326 328 330 330 329 329 327 329 333 332 331 336 341 340 340 342 341 339 336 334 334 334 334 334 335
313 312 312 312 314 314 312 312 312 312 314 316 317 317 317 317 317 318 320 320 320 320 320 320 322 325 329 327 329 329 328 329 331 332 333 337 333 332 339 338 339 335 336 337 336 334 332 333 334
313 312 312 313 313 313 313 312 312 313 314 315 316 316 316 316 317 317 318 320 320 320 320 320 322 326 329 331 328 327 327 327 328 330 335 340 338 332 338 338 336 335 337 339 338 336 332 335 335
312 313 313 314 313 311 313 313 312 311 312 313 314 316 316 316 316 316 316 319 319 320 321 321 323 322 324 332 331 328 328 329 328 328 329 330 330 332 332 328 330 337 331 338 336 339 339 338 336
314 314 313 313 312 310 311 311 312 311 312 312 312 315 317 317 317 317 316 317 321 323 323 323 321 319 319 321 327 333 334 331 330 329 327 327 329 327 327 327 328 329 330 339 337 337 341 339 338
314 313 312 311 309 311 310 310 313 312 312 313 315 317 317 317 318 318 316 318 321 320 319 318 318 317 317 315 314 314 316 321 322 325 327 325 326 326 327 327 327 328 329 333 334 333 329 332 340
313 311 313 313 313 315 311 311 312 312 314 315 315 317 317 317 317 318 317 321 321 320 319 318 318 317 317 316 316 315 314 313 314 314 314 314 320 325 325 325 327 328 331 335 335 331 329 329 339
313 313 314 318 315 316 314 314 314 314 315 316 317 317 316 318 317 320 321 321 320 319 318 318 318 317 317 317 317 317 317 318 318 317 317 315 314 315 320 322 324 326 326 329 331 329 329 330 334
314 313 314 316 318 316 317 316 315 315 315 315 315 315 315 317 318 318 319 319 318 317 318 318 318 317 318 317 317 317 317 317 318 317 315 315 315 315 316 316 318 319 322 326 327 326 329 331 329
314 315 315 313 322 323 320 318 317 315 315 315 314 313 314 315 315 315 316 317 317 318 318 318 318 317 318 318 318 317 317 317 318 316 315 314 313 316 317 318 318 321 326 325 327 324 326 329 330
314 314 317 317 316 322 321 316 314 315 314 314 315 316 316 316 316 316 315 316 315 318 318 317 316 317 318 318 317 318 318 317 317 317 317 316 315 314 316 317 317 318 321 319 319 321 326 331 332
314 314 314 314 317 319 318 318 314 315 315 314 314 316 316 316 316 316 316 315 316 317 315 316 315 315 316 315 317 318 318 318 318 318 317 316 316 316 314 314 317 317 318 325 327 326 322 320 325
Wind_Speed
10 12 12 6 3 4 4 4 1 7 10 19 12 17 8 7 2 5 12 7 11 19 21 25 27 27 26 26 27 25 24 23 24 25 24 22 20 18 16 14 14 13 13 12 11 10 10 10 10
9 12 5 1 3 3 5 1 5 4 10 24 12 18 16 7 17 13 11 12 11 13 20 23 27 28 27 27 27 26 25 24 25 24 22 21 19 17 15 14 13 12 11 10 9 8 8 8 8
9 11 3 3 3 5 4 1 2 10 16 16 9 6 3 6 7 6 7 11 9 11 19 23 27 29 28 29 29 28 26 25 24 23 22 20 18 16 14 12 11 10 9 8 7 6 5 5 5
6 3 1 3 6 7 4 8 10 6 14 8 18 5 9 6 6 9 9 5 10 14 16 24 27 32 31 30 29 29 28 25 24 22 21 19 18 16 13 11 9 8 7 6 4 3 3 3 2
4 1 1 1 6 6 6 9 19 6 15 14 15 5 10 15 14 6 4 6 3 13 18 24 29 32 32 31 30 29 27 25 22 21 20 18 16 14 13 10 8 7 5 3 2 2 1 2 1
1 1 2 4 6 8 7 12 14 6 28 32 6 9 3 10 14 13 6 3 4 9 18 26 30 33 34 31 30 29 28 25 22 20 19 17 16 13 11 10 8 6 4 2 1 1 2 4 4
4 3 4 3 5 8 12 9 7 6 18 34 13 7 6 8 9 15 10 3 2 18 18 27 31 34 34 32 30 29 27 26 23 20 19 17 15 13 11 9 7 6 4 3 2 3 4 5 6
5 4 2 4 6 11 18 14 16 16 17 29 15 7 6 11 8 5 6 11 4 13 20 26 33 36 36 35 32 29 27 25 23 20 18 16 14 13 11 9 7 5 4 4 5 5 7 7 8
5 2 4 6 8 11 26 5 19 23 21 33 28 19 15 11 7 7 6 12 4 13 24 26 32 35 37 36 33 31 28 26 24 21 19 17 15 13 11 9 7 6 6 7 8 8 9 9 9
5 4 8 6 9 11 25 11 17 13 13 7 24 16 10 13 7 9 8 13 10 9 22 23 29 34 37 36 35 33 30 28 26 24 22 19 16 14 12 11 9 8 8 7 8 9 9 9 7
5 6 5 16 25 29 25 18 23 5 4 13 23 30 17 8 16 14 13 11 8 9 14 17 23 31 33 35 36 33 32 29 27 25 23 21 19 18 16 14 11 9 8 4 3 4 6 6 5
5 12 21 23 32 27 16 30 13 14 12 14 21 29 16 13 16 17 11 8 13 11 7 14 23 27 32 34 35 35 32 30 28 27 25 24 22 21 19 17 13 11 7 6 5 5 6 6 7
4 8 21 28 34 33 34 23 12 12 8 12 14 15 24 16 9 12 10 10 12 12 13 12 19 19 24 30 31 30 31 28 27 25 25 26 24 23 21 19 17 15 11 8 9 9 9 8 9
5 9 11 10 13 11 7 10 14 24 12 13 14 15 16 26 22 14 14 14 14 14 13 16 19 15 15 18 23 24 22 21 18 19 25 26 25 23 23 21 20 17 13 10 12 13 13 13 13
12 6 8 4 8 5 10 9 9 24 31 20 16 17 18 23 21 22 22 20 20 15 13 18 19 21 19 20 19 19 17 19 20 15 16 19 21 24 23 22 23 20 16 14 15 17 17 18 16
6 4 4 6 6 9 3 13 12 31 27 32 29 20 21 23 25 27 31 27 27 24 22 19 22 23 22 24 24 22 17 16 18 19 17 16 15 16 17 18 19 18 19 19 19 20 22 23 21
3 4 7 8 4 7 5 12 9 22 27 28 35 34 29 27 28 29 31 31 30 27 27 26 25 27 24 27 20 35 29 18 16 17 20 19 20 20 19 17 17 16 20 22 22 22 22 23 22
6 4 5 5 5 4 4 9 8 23 21 26 31 20 13 12 15 26 31 33 28 29 30 27 27 27 27 26 21 17 19 26 29 26 21 23 18 20 21 20 19 19 22 24 25 25 23 25 25
7 8 11 5 6 3 5 10 11 14 15 12 12 12 12 13 12 15 29 32 30 29 27 27 30 32 32 31 27 20 22 26 28 27 36 32 30 21 20 24 22 23 25 24 24 29 29 28 26
12 12 7 5 5 5 10 14 12 6 8 11 12 16 18 21 23 17 28 31 31 30 30 29 32 35 34 34 32 29 26 24 28 29 26 21 27 27 24 25 25 26 28 27 26 27 29 28 25
12 7 4 6 5 4 4 7 7 5 8 17 18 22 28 30 33 32 26 37 37 35 31 29 32 36 35 34 34 32 30 31 30 27 22 13 14 17 13 21 23 21 22 21 20 24 25 27 27
5 7 9 6 2 5 2 14 5 8 11 7 20 28 30 34 38 38 37 39 42 39 35 35 35 32 30 32 33 32 31 30 31 34 32 26 28 23 21 27 26 29 26 23 17 19 18 20 27
11 10 11 10 6 5 4 9 3 5 15 17 13 28 31 29 31 35 37 44 44 39 34 30 29 26 25 25 27 33 34 31 28 31 35 37 35 41 47 37 32 30 27 27 20 18 19 15 20
11 6 4 2 2 7 7 9 11 7 12 7 9 18 19 34 38 37 34 43 43 35 31 25 19 15 16 19 21 24 27 29 31 34 37 35 36 37 41 52 52 40 34 34 30 27 27 26 25
7 3 8 6 5 13 8 9 15 7 7 13 13 13 15 18 16 28 37 42 39 34 25 18 15 14 17 15 13 18 21 22 24 25 28 28 31 33 33 29 29 35 38 35 31 35 38 29 28
5 6 4 7 7 14 3 6 11 6 13 22 23 16 2 10 12 10 33 41 35 28 23 22 17 16 14 13 12 12 17 20 20 20 21 23 25 27 31 32 37 44 36 38 35 36 39 35 31
3 4 6 8 3 1 4 6 9 15 16 11 21 21 7 15 6 10 25 30 30 30 27 23 21 18 19 19 19 18 15 18 21 21 21 22 21 23 25 26 26 26 32 44 46 37 37 44 41
5 2 5 3 3 5 4 5 9 13 5 5 7 7 3 7 15 2 15 31 28 27 25 22 20 23 26 28 26 23 19 16 19 19 19 19 23 24 22 23 25 25 24 27 27 37 41 39 38
4 0 2 3 4 3 3 5 3 6 8 9 4 2 4 4 12 2 11 14 15 26 26 24 27 31 34 33 30 29 25 23 21 21 20 19 19 22 25 24 24 25 25 29 33 34 34 32 33
4 5 4 4 5 3 3 5 11 8 9 13 25 10 9 12 17 19 13 18 19 22 28 32 30 31 33 31 36 35 31 29 29 26 25 22 20 20 20 23 25 25 24 23 25 27 28 32 35
Wind_Direction
321 337 330 322 65 71 260 274 190 359 352 337 60 96 116 56 164 174 112 127 173 165 162 163 163 161 158 152 145 142 140 138 141 145 147 145 143 142 136 130 124 118 111 108 105 102 99 93 89
316 332 345 3 88 110 260 28 314 290 307 335 128 95 77 84 89 113 109 108 144 154 164 166 165 163 161 155 150 146 144 144 145 145 145 144 142 139 135 131 125 118 109 103 99 94 88 85 84
310 324 330 93 142 206 215 148 292 305 303 337 15 73 54 101 107 107 72 131 149 162 167 169 168 166 165 161 157 153 152 152 151 150 148 148 144 140 136 133 124 116 109 101 93 87 81 75 74
316 320 199 101 243 260 248 289 290 277 290 308 17 35 52 69 92 96 71 121 157 167 170 174 174 170 169 168 165 160 160 160 157 155 153 152 149 146 141 136 128 118 110 104 95 82 71 57 58
306 261 35 203 260 262 283 284 309 354 317 311 67 71 70 83 87 113 36 111 163 182 179 181 177 176 174 174 171 168 166 166 164 162 161 159 157 152 148 144 138 128 123 113 95 60 13 344 329
274 155 105 225 262 284 292 297 319 165 277 279 88 122 104 95 72 70 156 12 177 199 188 183 181 181 179 179 178 175 173 173 173 171 170 168 165 163 160 158 155 154 156 159 181 284 309 312 307
155 89 215 226 264 290 275 327 299 265 203 278 161 147 156 118 79 62 60 107 282 182 190 186 184 186 185 184 183 183 182 180 180 181 180 178 175 175 175 175 179 182 190 215 247 281 297 305 305
209 108 255 237 257 272 277 296 295 297 225 217 224 166 184 149 154 352 47 63 129 178 195 192 187 189 191 189 187 189 189 189 187 189 190 190 189 188 191 195 202 215 232 255 271 289 300 306 308
214 105 225 237 234 260 281 298 304 311 236 221 234 240 181 170 177 194 71 79 123 177 193 194 193 193 197 195 192 192 195 195 196 195 200 201 203 203 207 211 223 244 263 277 289 291 296 303 309
164 157 224 224 255 269 280 282 302 310 305 266 231 236 186 170 180 200 145 118 113 160 190 195 200 199 200 200 200 198 197 199 202 201 202 209 212 217 220 227 238 251 268 284 300 289 293 301 306
212 209 236 266 263 268 279 286 292 228 297 312 272 242 234 166 165 183 188 151 147 130 166 208 212 208 207 208 207 206 205 204 206 209 210 210 215 220 227 233 242 255 251 253 318 326 319 304 288
224 248 238 254 260 262 271 274 265 255 255 288 304 252 226 212 163 180 177 194 163 170 182 206 211 215 212 214 213 214 212 210 214 213 216 217 216 222 228 235 241 246 231 250 273 297 307 328 310
182 253 257 257 263 266 269 278 261 254 262 304 305 259 223 228 201 170 193 184 195 207 213 208 202 209 221 222 217 212 217 220 224 232 227 226 225 225 232 238 242 242 245 258 275 280 285 303 309
306 301 271 284 258 259 244 275 307 285 289 309 270 261 260 230 243 240 200 212 213 219 208 188 184 194 196 215 216 212 210 210 216 226 232 236 236 233 235 241 246 249 251 260 271 282 287 289 291
316 330 322 295 300 264 300 289 251 281 293 286 261 256 256 240 225 250 230 216 219 220 217 194 206 193 200 199 211 212 220 225 219 216 218 231 232 238 237 243 249 253 253 257 265 272 283 285 290
341 5 329 286 302 283 141 266 274 278 276 273 271 257 252 243 243 241 251 234 226 217 222 201 185 188 193 209 213 208 215 218 223 222 223 228 224 230 234 237 246 251 252 256 262 265 271 278 288
329 246 270 301 234 263 166 279 291 299 281 252 257 268 269 263 259 245 240 234 213 219 211 219 196 198 193 212 217 229 221 214 211 220 218 232 239 236 237 243 250 255 255 254 255 255 260 266 272
233 225 260 239 299 171 267 266 271 302 302 244 243 248 259 276 279 264 238 221 212 215 211 219 218 209 215 220 203 209 212 222 225 207 226 228 224 233 235 244 252 253 262 263 259 260 261 268 274
249 260 265 259 243 321 285 273 290 300 318 295 260 259 266 272 292 268 223 221 217 214 210 210 225 215 208 209 212 211 225 225 231 247 236 239 255 240 242 242 248 253 260 262 262 260 259 264 273
240 236 250 261 258 295 288 284 286 272 277 270 275 289 287 285 274 241 228 231 234 234 232 231 226 224 218 222 227 233 229 221 220 228 231 224 233 245 245 247 249 272 270 266 260 257 255 264 269
254 224 233 247 292 323 296 293 297 297 278 293 285 292 294 290 288 274 240 231 230 230 230 224 223 228 217 218 226 230 235 240 237 229 214 208 210 209 266 255 259 263 273 263 264 261 253 263 268
275 243 241 238 174 255 186 284 262 287 294 265 282 289 290 286 282 274 261 230 224 220 213 211 213 217 219 216 218 227 232 234 236 236 232 233 238 224 238 268 263 260 271 267 273 271 267 264 266
273 267 245 242 226 143 241 271 218 298 288 285 283 283 281 288 282 276 254 235 211 203 200 202 208 213 219 220 224 230 234 232 230 237 241 243 240 236 246 254 256 256 267 258 262 273 277 266 263
264 296 281 335 136 246 216 240 259 257 264 257 259 271 312 312 277 272 245 222 194 192 193 191 198 210 227 239 242 240 238 239 243 244 242 244 244 244 243 247 247 264 267 260 262 269 274 266 262
281 333 283 281 283 265 207 247 263 231 261 243 256 277 320 332 279 230 204 186 182 183 183 197 211 226 232 234 251 254 249 244 243 243 244 247 248 244 236 232 236 241 254 247 257 269 272 266 262
237 198 229 262 271 285 234 247 263 228 239 262 262 260 84 82 24 164 178 177 181 185 203 206 208 196 208 238 252 264 258 252 249 246 248 249 248 249 244 247 249 250 250 251 252 259 263 273 259
282 261 249 269 162 341 234 292 293 270 273 292 261 229 189 180 223 243 196 199 205 208 205 206 203 213 219 230 241 246 259 262 257 264 264 259 257 254 257 251 252 249 245 249 250 254 258 265 270
235 298 310 353 301 245 247 276 260 297 319 344 15 28 123 150 105 59 216 226 230 219 211 213 221 227 227 229 235 245 243 255 263 259 262 269 268 259 258 257 253 253 250 248 251 250 253 254 263
321 252 88 136 167 247 284 245 282 1 311 324 266 331 82 108 181 340 8 319 281 227 211 220 229 228 228 234 241 242 238 236 245 256 259 267 280 270 267 267 265 261 262 255 258 257 258 258 257
257 155 149 137 207 221 282 260 265 305 308 326 304 237 244 231 195 233 260 311 315 286 244 230 237 229 233 245 243 240 241 240 239 243 252 267 277 279 282 276 274 276 273 269 267 267 263 263 260